OBJECT C, 58919

Orbit data source: Space-Track

You're viewing an Uncataloged Satellite

Recently launched and/or uncataloged satellites may have evolving metadata. Metadata may include but not limited to: Owner, Maufacturer, Bus, Motor, and Mission.

OBJECT C, 58919 is a satellite in SSO that was launched on Sat, 03 Feb 2024 UTC via a JIELONG-3 launch vehicle from the South China Sea Launch Area (SCSLA). Unknown objects in Earth's orbit typically refer to objects detected orbiting the Earth but have not yet been identified or cataloged. These objects could be anything from previously untracked satellites, spent rocket stages, debris from satellite collisions, or even natural meteoroids temporarily captured by Earth's gravity.

Not visible in the next 10 days
Identifier
58919, 2024-024C
Orbit
SSO
Country
Flag of TBDTBD
Related business
None
Manufacturer
Unknown
Mission
Operational Commercial Communications
Bus & Motor
Unknown
Mass
Unknown
Launch date (UTC)
2024-02-03 (2 years ago)
Launch vehicle
JIELONG-3
Launch site
South China Sea Launch Area (SCSLA)
Object type
Unknown
Shape & HBR
Box + 2 Pan, 0.6 m
Radar Cross Section
0.330 m², Medium (>0.1 m² and < 1m²)

Expand to show TLE details & history
Last TLE update: 22 hours ago

TLE from 22 hours ago
0 OBJECT C
1 58919U 24024C   26172.53473329  .00299590  34556-4  10554-2 0  9996
2 58919  97.3108 262.8782 0008525 248.4897 111.5467 15.89060543133596
Epoch: 2026-06-21T12:50Z
TLE epoch observation values (Epoch: 2026-06-21T12:50:00.956Z)
Latitude
-0.00002°
Longitude
160.6406°
Altitude
310.199 km
Speed
7.721 km/s
True Right ascension
17h 31m 30s
True Declination
0° 00' 00"
Sunlit
Object was in full shadow at epoch
Visualization orbit readout
Latitude
Unknown
Longitude
Unknown
Altitude
Unknown
Speed
Unknown
Apparent Right ascension
Unknown
Apparent Declination
Unknown
Sunlit
N/A
Visualization observer readout
Local Sidereal Time
21:32:56
Azimuth
Unknown
Elevation
Unknown
Doppler factor
Unknown
Orbital elements
Apogee altitude
307.48 km
Perigee altitude
296.091 km
Semi-major axis
6,679.923 km
Eccentricity
0.00085
Inclination
97.3108°
RAAN
262.8782°
Arg. of periapsis
248.4897°
True anomaly
111.63753°
Mean anomaly
111.5467°
Eccentric anomaly
111.59212°
Mean motion
3.97545 °/min
Orbital period
90.56 mins
BSTAR
0.0010554
Loading maneuver chart data...
Computing Atmospheric mass density...
Loading historical data...
Loading historical data...
Loading historical data...
Loading historical data...
Loading historical data...
Loading historical data...
Loading historical data...

Documentation

Showing up to 5 results
|